Location: Newark
(34.1333°N, 7.9667°W)
Time: 17:14:20
(UTC+00:00)

Transit 2A - Pass Details

Date: 20 June 2021
Orbit: 598 x 960 km, 66.7° (Epoch: 23 July)

Event Time Altitude Azimuth Distance (km) Brightness Sun altitude
Rises 00:42:37 0° 353° (N) 3,078 10.2 -32.4°
Reaches altitude 10° 00:45:53 10° 17° (NNE) 2,231 9.2 -32.4°
Maximum altitude 00:48:50 15° 52° (NE) 1,953 8.5 -32.3°
Enters shadow 00:51:25 11° 83° (E) 2,257 8.5 -32.3°
Drops below altitude 10° 00:51:57 10° 88° (E) 2,367 - -32.3°
Sets 00:55:33 0° 110° (ESE) 3,378 - -32.2°
